CAPE
0 0 0 0 0 0 0 0 0 0 0 0 0 0 0 0 0 0 0 0 0 0 0 0 0 0 0 0 0 0 0 0 0 194 45 0 0 0 0 0 0 0 0 0
0 0 0 0 0 0 0 0 0 0 0 0 0 0 0 0 0 0 0 0 0 0 0 0 0 0 0 0 0 36 3 0 0 0 0 0 0 0 0 0 0 0 0 0
0 0 0 0 0 0 0 0 0 0 0 0 0 0 0 0 0 0 0 0 0 0 0 0 0 0 0 0 44 0 0 0 0 0 0 0 0 0 0 0 0 0 0 0
0 0 0 0 0 0 0 0 0 0 0 0 0 0 0 0 0 0 0 0 0 0 0 0 0 62 37 0 0 0 0 0 0 0 0 0 0 0 0 0 0 0 0 0
0 0 0 0 0 0 0 0 0 0 0 0 0 0 0 0 0 0 0 0 0 0 0 19 158 22 0 0 0 0 0 0 0 0 0 0 0 0 0 0 0 0 0 0
0 0 0 0 0 0 0 0 0 0 0 0 0 0 0 0 0 0 0 0 0 20 160 115 21 0 0 0 0 0 0 0 0 0 0 0 0 0 0 0 0 0 0 0
0 0 0 0 0 0 0 0 0 0 0 0 0 0 0 0 0 0 0 20 118 160 117 64 13 0 0 0 0 0 0 0 0 0 0 0 0 0 0 0 0 0 0 0
0 0 0 0 0 0 0 0 0 0 0 0 0 0 0 0 0 0 0 0 3 9 3 0 0 0 0 0 0 0 0 0 0 0 0 0 0 0 0 0 0 0 0 0
0 0 0 0 0 0 0 0 0 0 0 0 0 0 0 0 0 0 32 1 0 0 0 0 0 0 0 0 0 0 0 0 0 0 0 0 0 0 0 0 0 0 0 0
0 0 0 0 0 0 0 0 0 0 0 0 0 0 0 0 0 0 0 0 0 0 0 0 0 0 0 0 0 0 0 0 0 0 0 0 0 0 0 0 0 0 0 0
0 0 0 0 0 0 0 0 0 0 0 0 0 0 0 0 0 0 0 0 0 0 0 0 0 0 0 0 0 0 0 0 0 0 0 0 0 0 0 0 0 0 0 0
0 0 0 0 0 0 0 0 0 0 0 0 0 0 0 0 0 4 8 0 0 0 0 0 0 0 0 0 0 0 0 0 0 0 0 0 0 0 0 0 0 0 0 0
0 0 0 0 0 0 12 5 0 0 0 1 0 0 6 0 0 121 0 0 0 0 0 0 0 0 0 0 0 0 0 0 0 0 0 0 0 0 0 0 0 0 0 0
2 0 0 0 0 36 2 0 0 0 0 0 0 0 0 0 1 88 0 0 0 0 0 0 0 0 0 0 0 0 0 0 0 0 0 0 0 0 0 0 0 0 0 0
0 0 0 0 9 27 18 59 16 0 0 0 0 0 0 2 13 48 0 0 0 0 0 0 0 0 0 0 0 0 0 0 0 0 0 0 0 0 0 0 0 0 0 0
0 0 0 0 0 0 0 0 0 1 0 0 0 0 0 0 0 0 0 0 0 0 0 0 0 0 0 0 0 0 0 0 0 0 0 0 0 0 0 0 0 0 0 0
0 0 1 3 0 0 0 0 0 0 0 0 0 0 0 0 0 0 17 21 0 0 0 0 0 0 0 0 0 0 0 0 0 0 0 0 0 0 0 0 0 0 0 0
0 0 0 2 0 0 0 0 0 0 0 0 0 100 0 0 0 0 0 0 0 0 0 0 0 0 0 0 0 0 0 0 0 0 0 0 0 0 0 0 0 0 0 0
0 0 0 0 0 0 0 10 22 0 1 0 3 75 0 0 0 0 0 0 0 0 0 0 0 0 0 0 0 0 0 0 0 0 0 0 0 0 0 0 0 0 0 0
0 0 4 0 0 0 0 78 2 0 0 36 3 12 0 0 0 0 0 0 0 0 0 0 0 0 0 0 0 0 0 0 0 0 0 0 0 0 0 0 0 0 0 0
0 0 1 0 0 0 17 41 0 16 0 116 0 29 4 0 0 0 0 0 0 0 0 0 0 0 0 0 0 0 0 0 0 0 0 0 0 0 0 0 0 0 0 0
0 0 10 0 0 3 34 139 69 0 69 10 44 0 0 0 0 0 0 0 0 0 0 0 0 0 0 0 0 0 0 0 0 0 0 0 0 0 0 0 0 0 0 0
0 0 0 0 0 0 42 83 1 8 15 5 0 0 0 0 0 0 0 0 0 0 0 0 0 0 0 0 0 0 0 0 0 0 0 0 0 0 0 0 0 0 0 0
0 0 4 0 0 2 32 1 15 0 0 0 0 0 0 0 0 0 0 0 0 0 0 0 0 0 0 0 0 0 0 0 0 0 0 0 0 0 0 0 0 0 0 0
0 0 0 0 2 23 0 15 0 0 0 0 0 0 0 0 0 0 0 0 0 0 0 0 0 0 0 0 0 0 0 0 0 0 0 0 0 0 0 0 0 0 0 0
0 2 14 3 0 6 7 0 0 0 0 0 0 0 0 0 0 0 0 0 0 0 0 0 0 0 0 0 0 0 0 0 0 0 0 0 0 0 0 0 0 0 0 0
CIN
0 0 0 0 0 0 0 0 0 0 0 0 0 0 0 0 0 0 0 0 0 0 0 0 0 0 0 0 0 0 0 0 0 -392 -363 0 0 0 0 0 0 0 0 0
0 0 0 0 0 0 0 0 0 0 0 0 0 0 0 0 0 0 0 0 0 0 0 0 0 0 0 0 0 -812 -472 0 0 0 0 0 0 0 0 0 0 0 0 0
0 0 0 0 0 0 0 0 0 0 0 0 0 0 0 0 0 0 0 0 0 0 0 0 0 0 0 -179 -792 0 0 0 0 0 0 0 0 0 0 0 0 0 0 0
0 0 0 0 0 0 0 0 0 0 0 0 0 0 0 0 0 0 0 0 0 0 0 0 0 -659 -685 0 0 0 0 0 0 0 0 0 0 0 0 0 0 0 0 0
0 0 0 0 0 0 0 0 0 0 0 0 0 0 0 0 0 0 0 0 0 0 0 -657 -655 -752 0 0 0 0 0 0 0 0 0 0 0 0 0 0 0 0 0 0
0 0 0 0 0 0 0 0 0 0 0 0 0 0 0 0 0 0 0 0 0 -243 -720 -753 -772 0 0 0 0 0 0 0 0 0 0 0 0 0 0 0 0 0 0 0
0 0 0 0 0 0 0 0 0 0 0 0 0 0 0 0 0 0 0 -724 -750 -811 -751 -724 -466 -23 0 0 0 0 0 0 0 0 0 0 0 0 0 0 0 0 0 0
0 0 0 0 0 0 0 0 0 0 0 0 0 0 0 0 0 0 0 0 -454 -761 -96 0 0 0 0 0 0 0 0 0 0 0 0 0 0 0 0 0 0 0 0 0
0 0 0 0 0 0 0 0 0 0 0 0 0 0 0 0 0 0 -410 -428 0 0 0 0 0 0 0 0 0 0 0 0 0 0 0 0 0 0 0 0 0 0 0 0
0 0 0 0 0 0 0 0 0 0 0 0 0 0 0 0 0 0 0 0 0 0 0 0 0 0 0 0 0 0 0 0 0 0 0 0 0 0 0 0 0 0 0 0
0 0 0 0 0 0 0 0 0 0 0 0 0 0 0 0 0 0 0 0 0 0 0 0 0 0 0 0 0 0 0 0 0 0 0 0 0 0 0 0 0 0 0 0
0 0 0 0 0 0 0 0 0 0 0 0 0 0 0 0 0 -374 -361 0 0 0 0 0 0 0 0 0 0 0 0 0 0 0 0 0 0 0 0 0 0 0 0 0
0 -5 0 0 0 0 -145 -200 0 0 0 -161 0 0 -79 -95 0 -288 0 0 0 0 0 0 0 0 0 0 0 0 0 0 0 0 0 0 0 0 0 0 0 0 0 0
-152 0 0 0 0 -143 -60 0 0 0 0 0 0 0 0 0 -82 -265 0 0 0 0 0 0 0 0 0 0 0 0 0 0 0 0 0 0 0 0 0 0 0 0 0 0
0 0 0 0 -168 -163 -93 -130 -193 0 0 0 0 0 0 -73 -267 -275 0 0 0 0 0 0 0 0 0 0 0 0 0 0 0 0 0 0 0 0 0 0 0 0 0 0
0 0 0 0 0 0 0 0 0 -84 0 0 0 0 0 0 0 0 0 0 0 0 0 0 0 0 0 0 0 0 0 0 0 0 0 0 0 0 0 0 0 0 0 0
0 -39 -15 -47 0 0 0 0 0 0 0 0 0 0 0 0 0 0 -258 -197 0 0 0 0 0 0 0 0 0 0 0 0 0 0 0 0 0 0 0 0 0 0 0 0
0 0 0 -90 0 0 0 0 0 0 0 0 0 -164 0 0 0 0 0 0 0 0 0 0 0 0 0 0 0 0 0 0 0 0 0 0 0 0 0 0 0 0 0 0
0 0 0 0 0 0 0 -216 -189 0 -15 0 -151 -368 0 0 0 0 0 0 0 0 0 0 0 0 0 0 0 0 0 0 0 0 0 0 0 0 0 0 0 0 0 0
0 0 -27 0 0 0 0 -172 -161 0 0 -340 -204 -117 0 0 0 0 0 0 0 0 0 0 0 0 0 0 0 0 0 0 0 0 0 0 0 0 0 0 0 0 0 0
0 0 -7 0 0 0 -41 -152 0 -155 0 -230 0 -288 -202 0 0 0 0 0 0 0 0 0 0 0 0 0 0 0 0 0 0 0 0 0 0 0 0 0 0 0 0 0
0 0 -61 0 -6 -5 -107 -71 -94 0 -290 -387 -307 0 0 0 0 0 0 0 0 0 0 0 0 0 0 0 0 0 0 0 0 0 0 0 0 0 0 0 0 0 0 0
0 0 0 -3 0 0 -136 -124 -33 -248 -338 -307 0 0 0 0 0 0 0 0 0 0 0 0 0 0 0 0 0 0 0 0 0 0 0 0 0 0 0 0 0 0 0 0
0 0 -53 0 0 -68 -145 -38 -297 0 0 0 0 0 0 0 0 0 0 0 0 0 0 0 0 0 0 0 0 0 0 0 0 0 0 0 0 0 0 0 0 0 0 0
0 0 0 0 -45 -115 0 -103 0 0 0 0 0 0 0 0 0 0 0 0 0 0 0 0 0 0 0 0 0 0 0 0 0 0 0 0 0 0 0 0 0 0 0 0
0 -38 -118 -71 0 -217 -51 0 0 0 0 0 0 0 0 0 0 0 0 0 0 0 0 0 0 0 0 0 0 0 0 0 0 0 0 0 0 0 0 0 0 0 0 0
Wind_Speed
4 3 6 10 7 8 3 3 7 8 9 9 14 8 9 13 11 15 16 13 17 19 19 19 19 18 16 14 8 8 8 4 4 3 3 4 3 3 4 4 4 7 7 9
5 7 11 7 7 6 6 9 11 10 6 8 6 10 9 8 11 16 18 16 17 14 9 15 14 14 14 9 9 11 11 9 7 4 3 3 2 3 2 3 5 8 9 9
7 10 3 6 11 6 6 5 4 8 3 3 5 5 2 5 5 8 13 20 15 19 18 16 14 8 9 11 13 13 12 11 8 7 4 4 3 3 4 8 6 7 9 8
7 13 11 8 10 9 3 4 3 6 7 1 3 4 5 4 8 8 15 9 14 15 15 17 11 12 14 14 13 13 12 12 9 7 8 7 3 3 2 3 4 6 7 8
10 5 5 4 8 7 7 0 2 2 4 3 6 6 9 2 8 8 9 17 18 18 10 15 16 17 16 13 13 12 13 12 9 10 8 6 5 3 3 4 6 5 5 7
9 5 4 6 4 2 1 5 9 6 4 5 6 6 7 5 4 6 8 8 6 14 20 21 19 18 16 14 13 11 13 11 10 10 10 8 9 7 4 4 4 5 4 6
6 11 5 3 5 3 8 8 4 5 6 6 7 3 8 8 2 6 10 15 16 20 20 19 20 17 15 14 12 11 12 11 10 11 11 7 6 6 4 5 4 6 7 7
4 9 5 3 7 10 5 9 8 7 4 5 6 3 2 5 9 10 13 17 19 18 16 18 16 15 15 14 13 12 12 11 10 8 5 3 6 2 3 4 5 4 6 8
6 8 1 8 4 10 5 3 7 7 3 4 4 5 3 8 17 11 11 17 16 19 17 17 16 15 15 13 11 11 12 8 6 4 1 5 6 6 5 6 5 4 8 8
8 4 10 9 4 2 9 6 2 4 3 3 4 1 2 12 14 8 8 7 14 15 15 15 14 14 13 13 11 11 9 6 3 5 5 5 6 6 6 5 6 8 9 10
6 6 11 2 2 3 4 3 7 6 5 7 2 3 1 1 4 4 8 9 10 13 13 12 12 12 13 12 10 8 6 6 5 4 5 6 5 5 5 5 6 7 8 10
5 7 5 8 4 8 5 4 6 7 2 2 4 6 5 3 8 15 10 6 9 12 12 11 9 11 11 10 9 7 5 4 3 4 5 4 5 5 6 6 7 7 8 9
5 2 3 7 6 5 7 1 5 8 4 4 6 7 5 5 8 10 16 16 13 13 11 8 5 9 10 8 7 5 3 4 4 6 6 6 6 6 7 7 7 7 8 9
8 3 7 8 5 3 0 2 4 7 4 4 6 5 5 2 3 7 14 19 19 14 8 4 4 4 5 7 6 4 4 4 6 6 6 7 7 7 6 7 7 6 7 9
6 4 3 3 1 2 4 5 5 4 6 7 9 7 6 10 10 9 11 17 19 18 18 15 6 3 4 5 4 5 6 6 5 6 6 8 7 6 6 7 7 7 7 8
4 2 3 2 0 4 2 5 8 9 5 4 1 6 4 7 4 7 14 13 13 13 14 11 11 6 6 5 5 4 3 4 4 6 7 7 7 6 6 7 6 7 7 8
4 4 4 2 3 4 4 4 6 5 4 7 7 11 6 5 8 10 13 15 16 16 13 10 9 7 6 6 5 4 3 4 5 5 6 6 6 6 6 7 6 7 8 7
4 4 3 2 4 1 9 6 5 2 6 6 6 5 4 3 3 6 6 15 14 14 14 11 8 6 6 5 2 2 4 5 4 5 6 6 6 6 6 6 7 7 6 6
4 4 2 4 4 5 6 1 2 1 3 5 5 6 9 11 9 11 7 8 14 9 9 8 6 5 7 5 3 2 2 4 5 5 6 7 5 6 5 6 7 6 6 6
3 4 6 3 3 5 5 2 4 3 1 4 4 11 11 3 4 3 7 11 11 11 8 8 6 4 7 2 2 2 2 4 6 6 7 7 6 4 3 4 7 4 4 5
1 2 7 4 4 7 2 4 2 5 7 1 1 5 6 4 2 12 13 13 10 7 5 4 3 6 2 6 5 2 2 5 7 6 6 6 6 4 1 2 4 5 6 6
6 6 4 3 4 8 5 2 5 7 2 2 2 4 8 13 14 13 13 14 14 11 7 3 4 3 4 6 5 1 3 6 6 6 6 6 6 4 1 3 4 5 6 7
4 7 7 8 7 5 2 6 5 7 6 3 5 6 13 14 15 14 12 11 11 10 7 4 5 3 2 4 5 1 4 5 6 6 7 6 6 4 1 2 3 4 5 5
7 6 1 4 4 2 7 5 4 4 6 6 9 13 13 16 14 12 11 9 8 7 6 5 5 4 3 4 3 2 4 4 5 5 7 6 6 6 2 1 2 2 2 3
3 4 3 2 3 5 5 7 8 8 10 10 9 15 15 15 11 11 10 11 9 10 7 6 6 5 5 4 2 3 3 4 5 4 5 6 4 5 5 1 2 3 3 3
3 4 3 5 4 3 4 6 12 13 11 13 14 10 11 14 14 12 11 8 9 8 6 5 5 5 3 4 2 3 4 2 3 5 5 4 4 4 3 3 3 6 7 8
Wind_Direction
270 97 232 245 205 225 238 242 256 258 255 192 210 186 217 178 186 183 191 187 183 188 184 182 179 173 173 179 115 114 128 115 104 64 57 34 50 47 64 52 53 20 14 12
359 247 229 235 262 252 266 266 272 285 262 158 177 216 216 154 202 192 194 200 194 188 184 188 182 175 180 110 108 90 89 81 77 74 60 72 32 36 62 23 29 16 22 18
199 246 313 218 266 264 251 227 236 228 320 24 109 337 209 234 210 213 210 204 199 190 187 186 184 141 105 100 101 102 96 85 75 74 73 40 28 21 1 9 8 21 16 5
236 259 246 260 250 185 244 202 234 46 47 315 35 262 317 298 306 198 233 226 217 203 189 183 118 99 102 101 101 93 87 81 72 69 72 70 76 36 347 345 7 358 350 336
245 281 302 288 233 172 213 124 53 66 86 71 346 83 270 340 311 291 265 227 214 208 156 108 105 107 101 99 93 90 87 76 65 59 58 64 51 32 23 15 352 324 315 315
240 273 224 235 308 218 132 74 36 45 63 24 257 132 275 258 261 327 343 341 132 101 108 108 106 102 97 90 83 79 78 65 57 52 52 56 59 40 25 340 330 320 305 318
308 279 268 214 249 355 75 60 3 0 8 223 296 25 241 303 343 117 83 68 74 90 102 108 107 105 101 100 95 87 77 66 55 63 54 47 63 49 12 332 313 323 334 325
195 310 202 231 188 196 176 151 153 201 189 248 319 274 266 343 24 55 90 99 97 90 94 99 102 103 99 94 87 79 67 68 52 59 60 44 48 28 342 332 340 318 313 313
168 260 263 298 248 172 191 148 188 131 47 72 239 300 324 13 33 12 102 107 110 113 114 112 107 102 97 88 79 85 69 63 63 70 90 34 25 20 0 339 322 307 316 319
217 252 263 274 50 5 136 166 79 19 134 236 279 250 354 2 14 10 45 29 112 109 112 109 103 99 94 88 85 80 80 79 66 46 35 32 17 6 345 330 317 323 322 329
171 139 269 41 42 204 8 33 56 111 107 170 180 273 265 265 300 18 156 126 122 115 109 95 96 98 91 89 84 83 77 61 45 36 32 25 354 341 328 318 317 323 324 328
172 151 216 221 27 88 80 136 112 110 294 86 137 261 260 155 59 62 49 93 107 92 89 95 97 91 89 89 81 76 75 68 54 31 26 354 331 331 338 322 309 316 316 316
196 68 75 355 6 15 104 139 110 110 97 178 133 255 203 244 111 110 99 90 64 54 68 64 71 95 94 95 100 99 89 69 45 8 356 340 333 328 312 299 298 306 306 308
90 107 141 186 185 163 20 173 179 123 118 211 217 238 217 242 194 155 132 128 122 105 81 54 80 83 94 101 101 103 67 34 23 355 334 315 308 306 302 299 299 300 299 301
93 135 104 126 330 101 168 230 187 191 199 153 241 211 214 187 197 173 152 140 145 145 148 161 153 108 117 97 83 64 50 7 331 328 325 298 297 316 325 329 316 311 301 311
9 167 117 99 234 337 244 191 214 225 210 242 174 272 192 172 145 161 155 145 141 142 138 138 131 154 121 121 98 75 37 301 328 320 300 299 324 335 335 325 321 317 317 329
65 100 70 301 356 12 3 222 249 199 199 174 184 224 145 186 197 178 163 172 151 137 135 133 140 160 159 133 117 77 298 301 331 318 326 340 336 334 332 328 336 328 328 323
106 80 83 189 36 290 237 278 264 162 36 36 65 42 95 112 37 37 109 123 132 140 134 144 138 189 141 113 120 31 296 309 319 334 333 335 334 325 338 347 341 333 327 334
113 106 115 151 192 278 314 334 87 150 43 4 90 104 114 121 78 35 48 114 131 121 127 138 178 198 118 119 43 21 326 342 339 328 325 310 324 313 348 350 342 330 346 347
108 119 140 140 167 232 245 152 178 109 347 340 112 161 162 181 98 175 97 92 88 110 126 157 183 132 97 76 110 127 341 329 313 322 307 298 319 296 339 346 345 332 344 344
75 80 176 170 205 279 257 226 130 111 230 202 262 153 179 172 203 133 116 103 101 110 160 157 137 89 146 133 129 96 317 318 300 320 325 330 331 319 252 8 8 359 359 1
190 161 180 137 180 268 203 37 170 189 180 151 170 146 106 116 111 116 122 130 129 147 139 151 104 143 138 123 122 202 326 296 323 334 343 342 344 334 64 78 16 23 13 3
224 184 187 169 212 214 209 137 151 150 145 167 127 113 132 130 129 135 138 142 156 142 136 152 187 150 100 152 148 99 287 324 341 355 349 339 343 348 303 119 49 39 21 10
338 20 118 96 357 140 103 88 111 138 136 125 128 133 133 133 138 139 147 150 145 143 153 179 175 159 180 190 146 226 305 351 354 358 345 336 355 342 355 100 123 90 43 8
221 358 358 344 51 59 75 132 136 120 110 107 125 137 143 140 146 147 147 155 149 159 171 171 181 172 182 159 175 273 325 31 344 354 348 341 347 356 333 322 196 194 216 209
166 177 157 227 239 158 246 188 152 138 146 145 140 140 150 151 157 153 158 154 141 147 155 154 160 136 140 139 217 302 324 10 344 4 349 327 334 343 340 357 353 241 220 232